Flag for U.S.A. Weather past 2 weeks in Livonia, Michigan, U.S.A.

Now
40 °F

Passing clouds.


Feels Like: 34 °F
Forecast: 36 / 57 °F
Wind: 8 mph from North

Location: Detroit Metropolitan Wayne County Airport

Current Time: Apr 26, 2015 at 2:58:42 AM

Latest Report: Apr 26, 2015 at 1:53 AM


Visibility: 10 mi

Pressure: 29.85 "Hg

Humidity: 55%

Dew point: 25 °F

Location of LivoniaLocation

Historic Weather in Livonia — Graph

°F

Livonia temperature yesterday

Maximum temperature yesterday: 53 °F (at 4:53 PM)
Minimum temperature yesterday: 41 °F (at 6:53 AM)
Average temperature yesterday: 46 °F

Past Weeks' High & Low Weather Summary

 TemperatureHumidityPressure
High75 °F (Apr 18, 12:53 PM)96% (Apr 17, 5:53 AM)30.40 "Hg (Apr 17, 5:53 AM)
Low30 °F (Apr 24, 4:53 AM)13% (Apr 18, 7:53 PM)29.24 "Hg (Apr 20, 4:53 AM)
Average51 °F55%29.98 "Hg
* Reported Apr 11 12:53 AM — Apr 26 12:53 AM, Livonia, Weather by CustomWeather, © 2015

Note: Actual official high and low records may vary slightly from our data, if they occured in-between our weather recording intervals... More about our weather records

Advertising

Livonia weather history for previous 24 hours

 ConditionsComfort  
Time TempWeatherWind HumidityBarometerVisibility
12:53 AM
Sun, Apr 26
42 °FPassing clouds.10 mph51%29.84 "Hg10 mi
11:53 PM
Sat, Apr 25
43 °FOvercast.15 mph49%29.83 "Hg10 mi
10:53 PM45 °FOvercast.14 mph45%29.83 "Hg10 mi
9:53 PM47 °FPassing clouds.9 mph46%29.82 "Hg10 mi
8:53 PM48 °FPartly sunny.10 mph44%29.82 "Hg10 mi
7:53 PM49 °FPartly sunny.5 mph44%29.81 "Hg10 mi
6:53 PM50 °FBroken clouds.6 mph44%29.81 "Hg10 mi
5:53 PM52 °FPartly sunny.9 mph34%29.81 "Hg10 mi
4:53 PM53 °FBroken clouds.8 mph31%29.81 "Hg10 mi
3:53 PM50 °FMostly cloudy.10 mph38%29.83 "Hg10 mi
2:53 PM49 °FMostly cloudy.10 mph41%29.85 "Hg10 mi
1:53 PM50 °FMostly cloudy.14 mph46%29.85 "Hg10 mi
12:53 PM50 °FMostly cloudy.7 mph43%29.89 "Hg10 mi
11:53 AM50 °FMostly cloudy.12 mph43%29.91 "Hg10 mi
10:53 AM47 °FMore clouds than sun.10 mph50%29.93 "Hg10 mi
9:53 AM45 °FMore clouds than sun.9 mph63%29.94 "Hg10 mi
8:53 AM43 °FMore clouds than sun.8 mph74%29.95 "Hg10 mi
7:53 AM42 °FBroken clouds.7 mph73%29.94 "Hg10 mi
6:53 AM41 °FPartly cloudy.6 mph76%29.94 "Hg10 mi
5:53 AM42 °FOvercast.5 mph76%29.96 "Hg7 mi
4:53 AM42 °FOvercast.5 mph85%29.98 "Hg7 mi
3:53 AM42 °FMostly cloudy.5 mph85%30.00 "Hg8 mi
2:57 AM43 °FLight rain. Overcast.7 mph81%30.01 "Hg5 mi
Weather by CustomWeather, © 2015

See weather overviewHow to use our weather pages